This demonstration page uses our WeatherBlox Daily Observations layout. Learn more.

Left ArrowRight Arrow

41.12389, -100.76542

Hourly Observations for February 21, 2017

Temp ( °F °C ) Dew Point ( °F °C ) Humidity (%) Winds ( mph kmh ) Pressure ( in mb ) Visibility ( mi km ) Precip ( " mm )
12:53 am 00:53 Clear 30 -1.1 22 -5.6 72 72 Calm 29.97 1015 10 16 0.00 0.00
1:53 am 01:53 Clear 29 -1.7 23 -5 78 78 N 5 7 29.98 1015 10 16 0.00 0.00
2:53 am 02:53 Clear 26 -3.3 21 -6.1 81 81 W 3 6 29.98 1015 10 16 0.00 0.00
3:53 am 03:53 Clear 29 -1.7 21 -6.1 72 72 ESE 3 6 29.97 1015 10 16 0.00 0.00
4:53 am 04:53 Clear 27 -2.8 21 -6.1 78 78 W 3 6 29.98 1015 10 16 0.00 0.00
5:53 am 05:53 Clear 25 -3.9 20 -6.7 81 81 WNW 6 9 29.99 1016 10 16 0.00 0.00
6:53 am 06:53 Clear 26 -3.3 20 -6.7 78 78 Calm 30.02 1017 10 16 0.00 0.00
7:53 am 07:53 Sunny 28 -2.2 22 -5.6 78 78 Calm 30.02 1017 10 16 0.00 0.00
8:53 am 08:53 Sunny 41 5 26 -3.3 55 55 Calm 30.00 1016 10 16 0.00 0.00
9:53 am 09:53 Sunny 49 9.4 29 -1.7 46 46 Calm 29.99 1016 10 16 0.00 0.00
10:53 am 10:53 Sunny 60 15.6 26 -3.3 27 27 WSW 8 13 29.95 1014 10 16 0.00 0.00
11:53 am 11:53 Sunny 68 20 29 -1.7 23 23 WSW 7 11 29.93 1014 10 16 0.00 0.00
12:53 pm 12:53 Sunny 74 23.3 30 -1.1 20 20 W 23 37 29.89 1012 10 16 0.00 0.00
1:53 pm 13:53 Sunny 76 24.4 29 -1.7 18 18 WSW 17 28 29.86 1011 10 16 0.00 0.00
2:53 pm 14:53 Sunny 78 25.6 29 -1.7 16 16 WSW 12 19 29.83 1010 10 16 0.00 0.00
3:53 pm 15:53 Sunny 79 26.1 26 -3.3 14 14 W 9 15 29.80 1009 10 16 0.00 0.00
4:53 pm 16:53 Sunny 78 25.6 24 -4.4 13 13 WNW 13 20 29.80 1009 10 16 0.00 0.00
5:53 pm 17:53 Sunny 71 21.7 24 -4.4 17 17 W 10 17 29.81 1010 10 16 0.00 0.00
6:53 pm 18:53 Clear 60 15.6 25 -3.9 26 26 WSW 8 13 29.83 1010 10 16 0.00 0.00
7:53 pm 19:53 Clear 53 11.7 26 -3.3 35 35 Calm 29.83 1010 10 16 0.00 0.00
8:53 pm 20:53 Clear 48 8.9 25 -3.9 41 41 Calm 29.81 1010 10 16 0.00 0.00
9:53 pm 21:53 Clear 42 5.6 28 -2.2 58 58 Calm 29.80 1009 10 16 0.00 0.00
10:53 pm 22:53 Clear 36 2.2 26 -3.3 67 67 NNW 5 7 29.80 1009 10 16 0.00 0.00
11:53 pm 23:53 Clear 34 1.1 26 -3.3 73 73 Calm 29.77 1008 10 16 0.00 0.00

Powered by AerisWeather